Location: Unspecified
(51.0950°N, 12.9690°E)
Time: 16:30:23
(UTC+00:00)

SWARM C - Pass Details

Date: 28 October 2021
Orbit: 424 x 429 km, 87.3° (Epoch: 03 December)

Event Time Altitude Azimuth Distance (km) Brightness Sun altitude
Rises 17:08:53 0° 172° (S) 2,394 8.3 -13.0°
Reaches altitude 10° 17:10:55 10° 169° (SSE) 1,532 7.2 -13.3°
Maximum altitude 17:14:10 58° 89° (E) 510 4.5 -13.8°
Drops below altitude 10° 17:17:28 10° 10° (N) 1,547 7.2 -14.4°
Sets 17:19:32 0° 6° (N) 2,420 8.2 -14.7°
